Winder, GA

9:29 PM EDT on September 24, 2016 (GMT -0400)
Winder-Barrow

Weather History for KWDR - January, 2014

Change the Weather History Date:

Monday, January 20, 2014

  Actual Average Record
Temperature  
Mean Temperature 48 °F -  
Max Temperature 64 °F 51 °F 69 °F (1973)
Min Temperature 32 °F 32 °F 14 °F (1971)
Degree Days  
Heating Degree Days 17    
Moisture  
Dew Point 7 °F    
Average Humidity 28    
Maximum Humidity 64    
Minimum Humidity 4    
Precipitation  
Precipitation 0.00 in - - ()
Sea Level Pressure  
Sea Level Pressure 29.99 in    
Wind  
Wind Speed 7 mph (WSW)    
Max Wind Speed 14 mph    
Max Gust Speed 22 mph    
Visibility 10 miles    
Events      
Averages and records for this station are not official NWS values.
T = Trace of Precipitation, MM = Missing Value Source: NWS Daily Summary

Daily Weather History Graph

Daily Weather History Graph

Search for Another Location

Airport or City:

Trip Planner

Search our weather history database for the weather conditions in past years. The results will help you decide how hot, cold, wet, or windy it might be!

Date:

Astronomy

Jan. 20, 2014 Rise Set
Actual Time 7:38 AM EST 5:53 PM EST
Civil Twilight 7:11 AM EST 6:20 PM EST
Nautical Twilight 6:40 AM EST 6:50 PM EST
Astronomical Twilight 6:11 AM EST 7:20 PM EST
Moon 10:12 PM EST (1/20) 9:50 AM EST (1/20)
Length of Visible Light 11h 08m
Length of Day
10h 15m
Waning Gibbous, 83% of the Moon is Illuminated
Jan 20
Waning Gibbous
Jan 24
Last Quarter
Jan 30
New
Feb 6
First Quarter
Feb 14
Full

Hourly Weather History & Observations

Time (EST) Temp. Windchill Dew Point Humidity Pressure Visibility Wind Dir Wind Speed Gust Speed Precip Events Conditions
12:15 AM 37.4 °F 33.8 °F 19.4 °F 48% 30.06 in 10.0 mi WSW 4.6 mph - N/A   Scattered Clouds
12:35 AM 37.4 °F 33.8 °F 19.4 °F 48% 30.07 in 10.0 mi WSW 4.6 mph - N/A   Scattered Clouds
12:55 AM 37.4 °F 34.9 °F 19.4 °F 48% 30.06 in 10.0 mi West 3.5 mph - N/A   Unknown
1:15 AM 37.4 °F 32.8 °F 19.4 °F 48% 30.06 in 10.0 mi West 5.8 mph - N/A   Unknown
1:35 AM 37.4 °F 32.8 °F 19.4 °F 48% 30.06 in 10.0 mi West 5.8 mph - N/A   Unknown
1:55 AM 37.4 °F 34.9 °F 17.6 °F 45% 30.05 in 10.0 mi WSW 3.5 mph - N/A   Unknown
2:15 AM 37.4 °F 32.8 °F 19.4 °F 48% 30.05 in 10.0 mi SW 5.8 mph - N/A   Unknown
2:35 AM 35.6 °F 29.9 °F 19.4 °F 52% 30.04 in 10.0 mi WSW 6.9 mph - N/A   Unknown
2:55 AM 35.6 °F 30.7 °F 19.4 °F 52% 30.04 in 10.0 mi WSW 5.8 mph - N/A   Scattered Clouds
3:15 AM 35.6 °F 29.9 °F 19.4 °F 52% 30.04 in 10.0 mi West 6.9 mph - N/A   Scattered Clouds
3:35 AM 35.6 °F 29.9 °F 19.4 °F 52% 30.04 in 10.0 mi WSW 6.9 mph - N/A   Scattered Clouds
3:55 AM 35.6 °F 30.7 °F 19.4 °F 52% 30.04 in 10.0 mi WSW 5.8 mph - N/A   Scattered Clouds
4:15 AM 33.8 °F 27.0 °F 19.4 °F 56% 30.04 in 10.0 mi WSW 8.1 mph - N/A   Scattered Clouds
4:35 AM 33.8 °F 28.6 °F 19.4 °F 56% 30.04 in 10.0 mi West 5.8 mph - N/A   Scattered Clouds
4:55 AM 33.8 °F - 19.4 °F 56% 30.03 in 10.0 mi Calm Calm - N/A   Unknown
5:15 AM 32.0 °F - 21.2 °F 64% 30.03 in 10.0 mi Calm Calm - N/A   Unknown
5:35 AM 32.0 °F 28.7 °F 21.2 °F 64% 30.03 in 10.0 mi WSW 3.5 mph - N/A   Unknown
5:55 AM 32.0 °F 25.6 °F 21.2 °F 64% 30.03 in 10.0 mi West 6.9 mph - N/A   Unknown
6:15 AM 37.4 °F 32.1 °F 17.6 °F 45% 30.03 in 10.0 mi West 6.9 mph - N/A   Unknown
6:35 AM 37.4 °F 32.8 °F 17.6 °F 45% 30.03 in 10.0 mi West 5.8 mph - N/A   Unknown
6:55 AM 37.4 °F 32.1 °F 17.6 °F 45% 30.04 in 10.0 mi West 6.9 mph - N/A   Unknown
7:15 AM 37.4 °F 32.1 °F 17.6 °F 45% 30.04 in 10.0 mi West 6.9 mph - N/A   Unknown
7:35 AM 37.4 °F 31.4 °F 17.6 °F 45% 30.03 in 10.0 mi West 8.1 mph - N/A   Unknown
7:55 AM 37.4 °F 31.4 °F 17.6 °F 45% 30.04 in 10.0 mi West 8.1 mph - N/A   Unknown
8:15 AM 37.4 °F 32.1 °F 19.4 °F 48% 30.04 in 10.0 mi West 6.9 mph - N/A   Clear
8:35 AM 39.2 °F 33.6 °F 19.4 °F 45% 30.04 in 10.0 mi West 8.1 mph - N/A   Clear
8:55 AM 42.8 °F 39.3 °F 19.4 °F 39% 30.05 in 10.0 mi West 5.8 mph - N/A   Scattered Clouds
9:15 AM 44.6 °F 39.2 °F 17.6 °F 34% 30.05 in 10.0 mi West 10.4 mph - N/A   Scattered Clouds
9:35 AM 46.4 °F 41.5 °F 15.8 °F 29% 30.05 in 10.0 mi West 10.4 mph 17.3 mph N/A   Scattered Clouds
9:55 AM 48.2 °F - 14.0 °F 25% 30.05 in 10.0 mi West 11.5 mph - N/A   Scattered Clouds
10:15 AM 50.0 °F - 14.0 °F 24% 30.05 in 10.0 mi West 11.5 mph - N/A   Scattered Clouds
10:35 AM 51.8 °F - 10.4 °F 19% 30.05 in 10.0 mi West 10.4 mph - N/A   Scattered Clouds
10:55 AM 53.6 °F - 8.6 °F 16% 30.05 in 10.0 mi West 12.7 mph 21.9 mph N/A   Unknown
11:15 AM 53.6 °F - 3.2 °F 13% 30.05 in 10.0 mi WNW 9.2 mph 17.3 mph N/A   Unknown
11:35 AM 55.4 °F - -0.4 °F 10% 30.03 in 10.0 mi West 13.8 mph 18.4 mph N/A   Unknown
11:55 AM 57.2 °F - -5.8 °F 8% 30.02 in 10.0 mi West 12.7 mph 18.4 mph N/A   Unknown
12:15 PM 59.0 °F - -7.6 °F 6% 30.01 in 10.0 mi WSW 9.2 mph 17.3 mph N/A   Unknown
12:35 PM 60.8 °F - -5.8 °F 7% 30.00 in 10.0 mi West 9.2 mph - N/A   Unknown
12:55 PM 60.8 °F - -5.8 °F 7% 29.98 in 10.0 mi WSW 8.1 mph 16.1 mph N/A   Unknown
1:15 PM 60.8 °F - -7.6 °F 6% 29.97 in 10.0 mi West 10.4 mph - N/A   Unknown
1:35 PM 62.6 °F - -9.4 °F 5% 29.96 in 10.0 mi West 11.5 mph 17.3 mph N/A   Unknown
1:55 PM 62.6 °F - -14.8 °F 4% 29.95 in 10.0 mi WSW 9.2 mph 17.3 mph N/A   Unknown
2:15 PM 62.6 °F - -22.0 °F 4% 29.95 in 10.0 mi West 11.5 mph 18.4 mph N/A   Unknown
2:35 PM 64.4 °F - -31.0 °F 4% 29.94 in 10.0 mi West 13.8 mph 18.4 mph N/A   Unknown
2:55 PM 64.4 °F - -38.2 °F 4% 29.94 in 10.0 mi West 10.4 mph 19.6 mph N/A   Unknown
3:15 PM 64.4 °F - -27.4 °F 4% 29.94 in 10.0 mi West 11.5 mph 18.4 mph N/A   Scattered Clouds
3:35 PM 64.4 °F - - N/A% 29.94 in 10.0 mi West 9.2 mph 17.3 mph N/A   Scattered Clouds
3:55 PM 64.4 °F - - N/A% 29.93 in 10.0 mi WSW 10.4 mph 16.1 mph N/A   Unknown
4:15 PM 64.4 °F - - N/A% 29.93 in 10.0 mi West 9.2 mph - N/A   Unknown
4:35 PM 64.4 °F - - N/A% 29.93 in 10.0 mi West 8.1 mph - N/A   Unknown
4:55 PM 64.4 °F - - N/A% 29.93 in 10.0 mi WSW 4.6 mph - N/A   Unknown
5:15 PM 64.4 °F - - N/A% 29.93 in 10.0 mi SW 4.6 mph - N/A   Unknown
5:35 PM 62.6 °F - -25.6 °F 4% 29.93 in 10.0 mi SW 4.6 mph - N/A   Unknown
5:55 PM 60.8 °F - -13.0 °F 5% 29.93 in 10.0 mi SW 4.6 mph - N/A   Unknown
6:15 PM 59.0 °F - -11.2 °F 5% 29.93 in 10.0 mi SW 3.5 mph - N/A   Scattered Clouds
6:35 PM 51.8 °F - 8.6 °F 18% 29.93 in 10.0 mi Calm Calm - N/A   Scattered Clouds
6:55 PM 50.0 °F - 8.6 °F 19% 29.93 in 10.0 mi Calm Calm - N/A   Unknown
7:15 PM 50.0 °F - 10.4 °F 20% 29.92 in 10.0 mi SSW 3.5 mph - N/A   Unknown
7:35 PM 48.2 °F - 10.4 °F 22% 29.93 in 10.0 mi SW 5.8 mph - N/A   Unknown
7:55 PM 51.8 °F - 3.2 °F 14% 29.94 in 10.0 mi WSW 5.8 mph - N/A   Unknown
8:15 PM 53.6 °F - -5.8 °F 9% 29.93 in 10.0 mi West 9.2 mph - N/A   Scattered Clouds
8:35 PM 53.6 °F - -9.4 °F 7% 29.93 in 10.0 mi SSW 4.6 mph - N/A   Scattered Clouds
8:55 PM 51.8 °F - -4.0 °F 10% 29.93 in 10.0 mi WSW 6.9 mph - N/A   Unknown
9:15 PM 53.6 °F - -4.0 °F 9% 29.93 in 10.0 mi West 10.4 mph - N/A   Unknown
9:35 PM 51.8 °F - -0.4 °F 12% 29.93 in 10.0 mi WSW 8.1 mph - N/A   Unknown
9:55 PM 51.8 °F - 1.4 °F 13% 29.93 in 10.0 mi WSW 9.2 mph - N/A   Unknown
10:15 PM 51.8 °F - 5.0 °F 15% 29.93 in 10.0 mi West 9.2 mph - N/A   Unknown
10:35 PM 51.8 °F - 8.6 °F 18% 29.93 in 10.0 mi West 9.2 mph - N/A   Unknown
10:55 PM 51.8 °F - 10.4 °F 19% 29.92 in 10.0 mi WSW 8.1 mph - N/A   Unknown
11:15 PM 50.0 °F - 10.4 °F 20% 29.92 in 10.0 mi WSW 6.9 mph - N/A   Unknown
11:35 PM 50.0 °F - 12.2 °F 22% 29.91 in 10.0 mi WSW 6.9 mph - N/A   Unknown
11:55 PM 48.2 °F - 12.2 °F 24% 29.90 in 10.0 mi West 9.2 mph - N/A   Unknown